Content
SEND FEEDBACK

Daily
Averages
Monthly
Summary
Malaysia

KUALA LUMPUR, MALAYSIA


Home > Asia > Malaysia
Elevation: 72 feet     Latitude: 03 07N     Longitude: 101 33E

WEATHER
 
SELECT A DAY
Number of Records: 123,390;   Date Range: 7/19/98 - 10/18/14
 
SHARE

PRINT THIS DATA

[ ← Previous Day ]
WEATHER ALMANAC - MAY 19, 2013
[ Next Day → ]
[ °C ]   °F
Weather ElementAverageHighLow
Temperature85.7 °F93.2 °F (2:00 pm)78.8 °F (6:00 am)
Dewpoint77.9 °F78.8 °F (3:00 am)77 °F (1:00 am)
Humidity78.6 %100 % (6:00 am)59 % (2:00 pm)
Barometer29.78 in29.83 in (1:00 am)29.68 in (5:00 pm)
Wind Speed4.2 mph9.2 mph (5:00 pm)
Weather ElementAverage
Visibility5.7 mi
Wind DirectionWSW (233 °)

Weather ElementTotal
Precipitation---
Cooling Degree Days21 (Base 65)
Growing Degree Days36 (Base 50)
Averaged from 23 records on May 19, 2013
WEATHER CONDITIONS BREAKOUT
WIND DIRECTION BREAKOUT
WEATHER BY HOUR - MAY 19, 2013
[ °C ]   °F
Local TimeTemperatureDewpointHumidityBarometerVisibilityWind DirectionWind SpeedGust SpeedPrecipitationEventsConditions
1:00 AM82.4 °F77.0 °F84 %29.83 in5.0 miNorth (350°)1.2 mphMostly Cloudy
2:00 AM82.4 °F77.0 °F84 %29.80 in4.3 miSSW (200°)5.8 mphMostly Cloudy
3:00 AM80.6 °F78.8 °F94 %29.80 in4.3 miESE (120°)3.5 mphMostly Cloudy
4:00 AM80.6 °F78.8 °F94 %29.77 in4.3 miSSE (150°)2.3 mphMostly Cloudy
5:00 AM80.6 °F77.0 °F89 %29.77 in4.3 miEast (80°)1.2 mphMostly Cloudy
6:00 AM78.8 °F78.8 °F100 %29.80 in5.6 miNW (310°)3.5 mphRainLight Rain
7:00 AM78.8 °F77.0 °F94 %29.80 in5.6 miNNW (330°)3.5 mphMostly Cloudy
8:00 AM78.8 °F77.0 °F94 %29.80 in5.6 miWNW (300°)4.6 mphMostly Cloudy
9:00 AM82.4 °F77.0 °F84 %29.83 in6.2 miNNW (330°)3.5 mphMostly Cloudy
10:00 AM86.0 °F77.0 °F74 %29.83 in6.2 miWNW (300°)3.5 mphMostly Cloudy
11:00 AM87.8 °F78.8 °F75 %29.83 in6.2 miNW (310°)5.8 mphMostly Cloudy
12:00 PM89.6 °F77.0 °F66 %29.80 in6.2 miWNW (300°)5.8 mphMostly Cloudy
1:00 PM91.4 °F78.8 °F66 %29.80 in6.2 miWest (270°)6.9 mphMostly Cloudy
2:00 PM93.2 °F77.0 °F59 %29.74 in6.2 miWSW (250°)4.6 mphMostly Cloudy
3:00 PM93.2 °F77.0 °F59 %29.71 in6.2 miWest (260°)3.5 mphMostly Cloudy
4:00 PM93.2 °F78.8 °F63 %29.71 in6.2 miWest (260°)6.9 mphMostly Cloudy
5:00 PM91.4 °F78.8 °F66 %29.68 in6.2 miWest (270°)9.2 mphMostly Cloudy
6:00 PM91.4 °F78.8 °F66 %29.71 in6.2 miWest (280°)8.1 mphMostly Cloudy
7:00 PM87.8 °F78.8 °F75 %29.74 in5.6 miWest (260°)3.5 mphOvercast
8:00 PM87.8 °F78.8 °F75 %29.77 in5.6 miWNW (290°)3.5 mphThunderstormThunderstorm
9:00 PM84.2 °F77.0 °F79 %29.80 in6.2 miENE (70°)3.5 mphMostly Cloudy
10:00 PM84.2 °F78.8 °F84 %29.80 in6.2 miENE (70°)2.3 mphMostly Cloudy
11:00 PM84.2 °F78.8 °F84 %29.83 in5.6 miCalmMostly Cloudy
Hourly data recorded from WMSA, located miles away from Kuala Lumpur, Malaysia







STORIES FROM OUR PARTNERS